contact:dominique.lefevre@mio.osupytheas.fr, maurice.libes@osupytheas.fr, didier.mallarino@osupytheas.fr
Project:EMSO http://www.emso-fr.org/EMSO-France
Depth: 2436.0 m
Title:EMSO Ligure Ouest : Data MII capteur CSTAR
DateTime,Latitude,Longitude,Instrument_Serial,Reference_Counts,Signal_Counts,Corrected_Signal_raw_counts,Calculated_Beam_c_inverse_meters,Internal_thermistor_counts
DateTime,Latitude,Longitude,Instrument_Serial,Reference_Counts,Signal_Counts,Corrected_Signal_raw_counts,Calculated_Beam_c_inverse_meters,Internal_thermistor_counts
2022-06-26T00:02:17,42.805,6.029,CST-1368DR,4687,5216,11858,01.101,551
2022-06-26T00:05:18,42.805,6.029,CST-1368DR,4687,5214,11855,01.102,551
2022-06-26T00:08:20,42.805,6.029,CST-1368DR,4686,5200,11825,01.112,551
2022-06-26T00:11:21,42.805,6.029,CST-1368DR,4686,5191,11805,01.119,551
2022-06-26T00:14:23,42.805,6.029,CST-1368DR,4686,5216,11861,01.100,551
2022-06-26T00:17:25,42.805,6.029,CST-1368DR,4687,5216,11859,01.101,551
2022-06-26T00:20:26,42.805,6.029,CST-1368DR,4687,5215,11856,01.102,551
2022-06-26T00:23:28,42.805,6.029,CST-1368DR,4687,5213,11852,01.103,551
2022-06-26T00:26:29,42.805,6.029,CST-1368DR,4687,5211,11846,01.105,551
2022-06-26T00:29:31,42.805,6.029,CST-1368DR,4687,5212,11849,01.104,551
2022-06-26T00:32:32,42.805,6.029,CST-1368DR,4687,5211,11848,01.105,551
2022-06-26T00:35:34,42.805,6.029,CST-1368DR,4687,5213,11851,01.104,551
2022-06-26T00:38:36,42.805,6.029,CST-1368DR,4687,5213,11851,01.104,551
2022-06-26T00:41:37,42.805,6.029,CST-1368DR,4687,5210,11844,01.106,551
2022-06-26T00:44:39,42.805,6.029,CST-1368DR,4686,5192,11807,01.118,551
2022-06-26T00:47:40,42.805,6.029,CST-1368DR,4686,5188,11797,01.122,551
2022-06-26T00:50:42,42.805,6.029,CST-1368DR,4686,5185,11791,01.124,551
2022-06-26T00:53:44,42.805,6.029,CST-1368DR,4686,5188,11796,01.122,551
2022-06-26T00:56:45,42.805,6.029,CST-1368DR,4686,5186,11793,01.123,551
2022-06-26T00:59:47,42.805,6.029,CST-1368DR,4686,5188,11797,01.122,551
2022-06-26T01:02:48,42.805,6.029,CST-1368DR,4686,5185,11791,01.124,551
2022-06-26T01:05:50,42.805,6.029,CST-1368DR,4686,5184,11787,01.125,551
2022-06-26T01:08:51,42.805,6.029,CST-1368DR,4686,5186,11793,01.123,551
2022-06-26T01:11:53,42.805,6.029,CST-1368DR,4686,5188,11796,01.122,550
2022-06-26T01:14:55,42.805,6.029,CST-1368DR,4686,5180,11780,01.128,551
2022-06-26T01:17:56,42.805,6.029,CST-1368DR,4686,5182,11783,01.127,551
2022-06-26T01:20:58,42.805,6.029,CST-1368DR,4686,5182,11783,01.127,551
2022-06-26T01:23:59,42.805,6.029,CST-1368DR,4686,5187,11794,01.123,551
2022-06-26T01:27:01,42.805,6.029,CST-1368DR,4686,5185,11791,01.124,551
2022-06-26T01:30:02,42.805,6.029,CST-1368DR,4686,5184,11788,01.125,551
2022-06-26T01:33:04,42.805,6.029,CST-1368DR,4686,5185,11790,01.124,551
2022-06-26T01:36:06,42.805,6.029,CST-1368DR,4686,5166,11747,01.139,551
2022-06-26T01:39:07,42.805,6.029,CST-1368DR,4686,5166,11747,01.139,551
2022-06-26T01:42:09,42.805,6.029,CST-1368DR,4686,5162,11739,01.142,551
2022-06-26T01:45:10,42.805,6.029,CST-1368DR,4686,5165,11746,01.139,551
2022-06-26T01:48:12,42.805,6.029,CST-1368DR,4686,5165,11745,01.139,551
2022-06-26T01:51:14,42.805,6.029,CST-1368DR,4686,5164,11743,01.140,551
2022-06-26T01:54:15,42.805,6.029,CST-1368DR,4686,5157,11726,01.146,551
2022-06-26T01:57:17,42.805,6.029,CST-1368DR,4686,5158,11730,01.145,551
2022-06-26T02:00:18,42.805,6.029,CST-1368DR,4686,5159,11732,01.144,551
2022-06-26T02:03:20,42.805,6.029,CST-1368DR,4686,5165,11744,01.140,551
2022-06-26T02:06:21,42.805,6.029,CST-1368DR,4686,5163,11740,01.141,551
2022-06-26T02:09:23,42.805,6.029,CST-1368DR,4686,5164,11743,01.140,551
2022-06-26T02:12:25,42.805,6.029,CST-1368DR,4686,5161,11735,01.143,551
2022-06-26T02:15:26,42.805,6.029,CST-1368DR,4686,5164,11743,01.140,551
2022-06-26T02:18:28,42.805,6.029,CST-1368DR,4686,5157,11726,01.146,551
2022-06-26T02:21:29,42.805,6.029,CST-1368DR,4686,5162,11737,01.142,551
2022-06-26T02:24:31,42.805,6.029,CST-1368DR,4686,5166,11746,01.139,551
2022-06-26T02:27:32,42.805,6.029,CST-1368DR,4686,5169,11754,01.136,551
2022-06-26T02:30:34,42.805,6.029,CST-1368DR,4686,5161,11736,01.143,551
2022-06-26T02:33:36,42.805,6.029,CST-1368DR,4686,5166,11747,01.139,551
2022-06-26T02:36:37,42.805,6.029,CST-1368DR,4686,5166,11747,01.139,551
2022-06-26T02:39:39,42.805,6.029,CST-1368DR,4686,5166,11746,01.139,551
2022-06-26T02:42:40,42.805,6.029,CST-1368DR,4686,5165,11745,01.139,551
2022-06-26T02:45:42,42.805,6.029,CST-1368DR,4686,5166,11747,01.139,551
2022-06-26T02:48:44,42.805,6.029,CST-1368DR,4686,5165,11744,01.140,551
2022-06-26T02:51:45,42.805,6.029,CST-1368DR,4686,5168,11751,01.137,551
2022-06-26T02:54:47,42.805,6.029,CST-1368DR,4686,5164,11743,01.140,551
2022-06-26T02:57:48,42.805,6.029,CST-1368DR,4686,5166,11747,01.139,551
2022-06-26T03:00:50,42.805,6.029,CST-1368DR,4686,5167,11749,01.138,551
2022-06-26T03:03:51,42.805,6.029,CST-1368DR,4686,5169,11753,01.137,551
2022-06-26T03:06:53,42.805,6.029,CST-1368DR,4686,5165,11745,01.139,551
2022-06-26T03:09:55,42.805,6.029,CST-1368DR,4686,5173,11762,01.134,551
2022-06-26T03:12:56,42.805,6.029,CST-1368DR,4686,5176,11771,01.131,551
2022-06-26T03:15:58,42.805,6.029,CST-1368DR,4686,5172,11761,01.134,551
2022-06-26T03:18:59,42.805,6.029,CST-1368DR,4686,5174,11765,01.133,551
2022-06-26T03:22:01,42.805,6.029,CST-1368DR,4686,5172,11762,01.134,551
2022-06-26T03:25:02,42.805,6.029,CST-1368DR,4686,5168,11751,01.137,551
2022-06-26T03:28:04,42.805,6.029,CST-1368DR,4686,5174,11765,01.133,551
2022-06-26T03:31:06,42.805,6.029,CST-1368DR,4686,5171,11758,01.135,551
2022-06-26T03:34:07,42.805,6.029,CST-1368DR,4686,5173,11763,01.133,551
2022-06-26T03:37:09,42.805,6.029,CST-1368DR,4686,5175,11768,01.132,551
2022-06-26T03:40:10,42.805,6.029,CST-1368DR,4686,5166,11748,01.138,551
2022-06-26T03:43:12,42.805,6.029,CST-1368DR,4686,5168,11753,01.137,551
2022-06-26T03:46:14,42.805,6.029,CST-1368DR,4686,5174,11766,01.132,551
2022-06-26T03:49:15,42.805,6.029,CST-1368DR,4686,5177,11772,01.130,551
2022-06-26T03:52:17,42.805,6.029,CST-1368DR,4686,5168,11751,01.137,551
2022-06-26T03:55:18,42.805,6.029,CST-1368DR,4686,5161,11735,01.143,551
2022-06-26T03:58:20,42.805,6.029,CST-1368DR,4686,5164,11742,01.140,551
2022-06-26T04:01:21,42.805,6.029,CST-1368DR,4686,5165,11744,01.140,551
2022-06-26T04:04:23,42.805,6.029,CST-1368DR,4686,5159,11731,01.144,551
2022-06-26T04:07:25,42.805,6.029,CST-1368DR,4686,5152,11714,01.150,551
2022-06-26T04:10:26,42.805,6.029,CST-1368DR,4686,5152,11715,01.150,551
2022-06-26T04:13:28,42.805,6.029,CST-1368DR,4686,5144,11698,01.156,551
2022-06-26T04:16:29,42.805,6.029,CST-1368DR,4686,5130,11666,01.166,551
2022-06-26T04:19:31,42.805,6.029,CST-1368DR,4686,5112,11625,01.181,551
2022-06-26T04:22:32,42.805,6.029,CST-1368DR,4686,5121,11644,01.174,551
2022-06-26T04:25:34,42.805,6.029,CST-1368DR,4686,5135,11678,01.162,551
2022-06-26T04:28:36,42.805,6.029,CST-1368DR,4686,5130,11665,01.167,551
2022-06-26T04:31:37,42.805,6.029,CST-1368DR,4686,5131,11668,01.166,551
2022-06-26T04:34:39,42.805,6.029,CST-1368DR,4686,5128,11662,01.168,551
2022-06-26T04:37:40,42.805,6.029,CST-1368DR,4686,5107,11614,01.184,551
2022-06-26T04:40:42,42.805,6.029,CST-1368DR,4686,5099,11594,01.191,551
2022-06-26T04:43:44,42.805,6.029,CST-1368DR,4686,5109,11617,01.183,551
2022-06-26T04:46:45,42.805,6.029,CST-1368DR,4686,5097,11590,01.193,551
2022-06-26T04:49:47,42.805,6.029,CST-1368DR,4685,5096,11590,01.193,551
2022-06-26T04:52:48,42.805,6.029,CST-1368DR,4686,5111,11623,01.181,551
2022-06-26T04:55:50,42.805,6.029,CST-1368DR,4685,5098,11595,01.191,551
2022-06-26T04:58:51,42.805,6.029,CST-1368DR,4686,5110,11619,01.183,551
2022-06-26T05:01:53,42.805,6.029,CST-1368DR,4686,5124,11651,01.172,551
2022-06-26T05:04:55,42.805,6.029,CST-1368DR,4686,5108,11616,01.184,551
2022-06-26T05:07:56,42.805,6.029,CST-1368DR,4686,5107,11613,01.185,551
2022-06-26T05:10:58,42.805,6.029,CST-1368DR,4685,5094,11586,01.194,551
2022-06-26T05:13:59,42.805,6.029,CST-1368DR,4685,5094,11585,01.194,551
2022-06-26T05:17:01,42.805,6.029,CST-1368DR,4685,5108,11617,01.183,551
2022-06-26T05:20:02,42.805,6.029,CST-1368DR,4686,5109,11617,01.183,551
2022-06-26T05:23:04,42.805,6.029,CST-1368DR,4685,5084,11564,01.202,551
2022-06-26T05:26:06,42.805,6.029,CST-1368DR,4685,5104,11608,01.186,551
2022-06-26T05:29:07,42.805,6.029,CST-1368DR,4685,5076,11546,01.208,551
2022-06-26T05:32:09,42.805,6.029,CST-1368DR,4685,5073,11538,01.211,551
2022-06-26T05:35:10,42.805,6.029,CST-1368DR,4685,5073,11539,01.210,551
2022-06-26T05:38:12,42.805,6.029,CST-1368DR,4685,5091,11580,01.196,551
2022-06-26T05:41:14,42.805,6.029,CST-1368DR,4685,5087,11569,01.200,551
2022-06-26T05:44:15,42.805,6.029,CST-1368DR,4685,5082,11559,01.203,551
2022-06-26T05:47:17,42.805,6.029,CST-1368DR,4685,5102,11604,01.188,551
2022-06-26T05:50:18,42.805,6.029,CST-1368DR,4685,5079,11552,01.206,551
2022-06-26T05:53:20,42.805,6.029,CST-1368DR,4685,5080,11555,01.205,551
2022-06-26T05:56:21,42.805,6.029,CST-1368DR,4685,5083,11561,01.203,551
2022-06-26T05:59:23,42.805,6.029,CST-1368DR,4685,5074,11541,01.210,551
2022-06-26T06:02:25,42.805,6.029,CST-1368DR,4685,5080,11553,01.205,551
2022-06-26T06:05:26,42.805,6.029,CST-1368DR,4685,5084,11563,01.202,551
2022-06-26T06:08:28,42.805,6.029,CST-1368DR,4685,5076,11545,01.208,551
2022-06-26T06:11:29,42.805,6.029,CST-1368DR,4685,5077,11548,01.207,551
2022-06-26T06:14:31,42.805,6.029,CST-1368DR,4685,5068,11527,01.214,551
2022-06-26T06:17:33,42.805,6.029,CST-1368DR,4685,5070,11532,01.213,551
2022-06-26T06:20:34,42.805,6.029,CST-1368DR,4685,5070,11532,01.213,551
2022-06-26T06:23:36,42.805,6.029,CST-1368DR,4685,5076,11545,01.208,551
2022-06-26T06:26:37,42.805,6.029,CST-1368DR,4685,5073,11539,01.210,551
2022-06-26T06:29:39,42.805,6.029,CST-1368DR,4685,5100,11599,01.190,551
2022-06-26T06:32:40,42.805,6.029,CST-1368DR,4685,5067,11525,01.215,551
2022-06-26T06:35:42,42.805,6.029,CST-1368DR,4685,5069,11529,01.214,551
2022-06-26T06:38:44,42.805,6.029,CST-1368DR,4685,5065,11520,01.217,551
2022-06-26T06:41:45,42.805,6.029,CST-1368DR,4685,5081,11556,01.204,551
2022-06-26T06:44:47,42.805,6.029,CST-1368DR,4685,5105,11611,01.185,551
2022-06-26T06:47:48,42.805,6.029,CST-1368DR,4685,5105,11611,01.185,551
2022-06-26T06:50:50,42.805,6.029,CST-1368DR,4685,5067,11524,01.215,551
2022-06-26T06:53:51,42.805,6.029,CST-1368DR,4685,5077,11548,01.207,551
2022-06-26T06:56:53,42.805,6.029,CST-1368DR,4685,5081,11555,01.205,551
2022-06-26T06:59:55,42.805,6.029,CST-1368DR,4685,5076,11546,01.208,551
2022-06-26T07:02:56,42.805,6.029,CST-1368DR,4685,5067,11525,01.215,551
2022-06-26T07:05:58,42.805,6.029,CST-1368DR,4685,5071,11534,01.212,551
2022-06-26T07:08:59,42.805,6.029,CST-1368DR,4685,5066,11522,01.216,551
2022-06-26T07:12:01,42.805,6.029,CST-1368DR,4685,5064,11517,01.218,551
2022-06-26T07:15:03,42.805,6.029,CST-1368DR,4685,5070,11531,01.213,551
2022-06-26T07:18:04,42.805,6.029,CST-1368DR,4685,5088,11572,01.199,551
2022-06-26T07:21:06,42.805,6.029,CST-1368DR,4685,5086,11568,01.200,550
2022-06-26T07:24:07,42.805,6.029,CST-1368DR,4685,5082,11559,01.203,551
2022-06-26T07:27:09,42.805,6.029,CST-1368DR,4685,5081,11557,01.204,551
2022-06-26T07:30:10,42.805,6.029,CST-1368DR,4685,5048,11480,01.231,551
2022-06-26T07:33:12,42.805,6.029,CST-1368DR,4685,5057,11501,01.223,551
2022-06-26T07:36:14,42.805,6.029,CST-1368DR,4685,5057,11503,01.223,551
2022-06-26T07:39:15,42.805,6.029,CST-1368DR,4685,5061,11510,01.220,551
2022-06-26T07:42:17,42.805,6.029,CST-1368DR,4685,5047,11479,01.231,551
2022-06-26T07:45:18,42.805,6.029,CST-1368DR,4685,5058,11504,01.222,551
2022-06-26T07:48:20,42.805,6.029,CST-1368DR,4685,5065,11519,01.217,551
2022-06-26T07:51:22,42.805,6.029,CST-1368DR,4685,5053,11492,01.227,551
2022-06-26T07:54:23,42.805,6.029,CST-1368DR,4685,5068,11526,01.215,551
2022-06-26T07:57:25,42.805,6.029,CST-1368DR,4685,5059,11506,01.222,551
2022-06-26T08:00:26,42.805,6.029,CST-1368DR,4685,5078,11549,01.207,551
2022-06-26T08:03:28,42.805,6.029,CST-1368DR,4685,5076,11544,01.209,551
2022-06-26T08:06:29,42.805,6.029,CST-1368DR,4685,5037,11457,01.239,551
2022-06-26T08:09:31,42.805,6.029,CST-1368DR,4685,5041,11464,01.236,551
2022-06-26T08:12:33,42.805,6.029,CST-1368DR,4685,5044,11473,01.233,551
2022-06-26T08:15:34,42.805,6.029,CST-1368DR,4685,5041,11465,01.236,551
2022-06-26T08:18:36,42.805,6.029,CST-1368DR,4685,5074,11541,01.210,551
2022-06-26T08:21:37,42.805,6.029,CST-1368DR,4685,5068,11526,01.215,551
2022-06-26T08:24:39,42.805,6.029,CST-1368DR,4685,5085,11566,01.201,551
2022-06-26T08:27:40,42.805,6.029,CST-1368DR,4685,5057,11503,01.223,551
2022-06-26T08:30:42,42.805,6.029,CST-1368DR,4685,5075,11542,01.209,551
2022-06-26T08:33:44,42.805,6.029,CST-1368DR,4685,5068,11528,01.214,551
2022-06-26T08:36:45,42.805,6.029,CST-1368DR,4685,5073,11538,01.211,551
2022-06-26T08:39:47,42.805,6.029,CST-1368DR,4685,5040,11463,01.237,551
2022-06-26T08:42:48,42.805,6.029,CST-1368DR,4685,5073,11538,01.211,551
2022-06-26T08:45:50,42.805,6.029,CST-1368DR,4685,5074,11541,01.210,551
2022-06-26T08:48:52,42.805,6.029,CST-1368DR,4685,5077,11547,01.207,551
2022-06-26T08:51:53,42.805,6.029,CST-1368DR,4685,5077,11547,01.207,551
2022-06-26T08:54:55,42.805,6.029,CST-1368DR,4685,5082,11558,01.204,551
2022-06-26T08:57:56,42.805,6.029,CST-1368DR,4685,5069,11529,01.214,551
2022-06-26T09:00:58,42.805,6.029,CST-1368DR,4685,5075,11543,01.209,551
2022-06-26T09:03:59,42.805,6.029,CST-1368DR,4685,5079,11553,01.205,551
2022-06-26T09:07:01,42.805,6.029,CST-1368DR,4685,5074,11539,01.210,551
2022-06-26T09:10:03,42.805,6.029,CST-1368DR,4685,5072,11537,01.211,551
2022-06-26T09:13:04,42.805,6.029,CST-1368DR,4685,5085,11566,01.201,551
2022-06-26T09:16:06,42.805,6.029,CST-1368DR,4685,5084,11564,01.202,551
2022-06-26T09:19:07,42.805,6.029,CST-1368DR,4685,5080,11555,01.205,551
2022-06-26T09:22:09,42.805,6.029,CST-1368DR,4685,5082,11558,01.204,551
2022-06-26T09:25:11,42.805,6.029,CST-1368DR,4685,5075,11542,01.209,551
2022-06-26T09:28:12,42.805,6.029,CST-1368DR,4685,5070,11531,01.213,551
2022-06-26T09:31:14,42.805,6.029,CST-1368DR,4685,5080,11555,01.205,551
2022-06-26T09:34:15,42.805,6.029,CST-1368DR,4685,5070,11532,01.213,551
2022-06-26T09:37:17,42.805,6.029,CST-1368DR,4685,5077,11547,01.207,551
2022-06-26T09:40:18,42.805,6.029,CST-1368DR,4685,5066,11523,01.216,551
2022-06-26T09:43:20,42.805,6.029,CST-1368DR,4685,5068,11528,01.214,551
2022-06-26T09:46:22,42.805,6.029,CST-1368DR,4685,5066,11522,01.216,551
2022-06-26T09:49:23,42.805,6.029,CST-1368DR,4685,5073,11538,01.211,551
2022-06-26T09:52:25,42.805,6.029,CST-1368DR,4685,5071,11534,01.212,551
2022-06-26T09:55:26,42.805,6.029,CST-1368DR,4685,5071,11533,01.212,551
2022-06-26T09:58:28,42.805,6.029,CST-1368DR,4685,5078,11550,01.206,551
2022-06-26T10:01:29,42.805,6.029,CST-1368DR,4685,5081,11555,01.205,551
2022-06-26T10:04:31,42.805,6.029,CST-1368DR,4685,5070,11532,01.213,551
2022-06-26T10:07:33,42.805,6.029,CST-1368DR,4685,5065,11520,01.217,551
2022-06-26T10:10:34,42.805,6.029,CST-1368DR,4685,5070,11532,01.213,551
2022-06-26T10:13:36,42.805,6.029,CST-1368DR,4685,5077,11548,01.207,551
2022-06-26T10:16:37,42.805,6.029,CST-1368DR,4685,5074,11539,01.210,551
2022-06-26T10:19:39,42.805,6.029,CST-1368DR,4685,5065,11520,01.217,551
2022-06-26T10:22:41,42.805,6.029,CST-1368DR,4685,5064,11517,01.218,551
2022-06-26T10:25:42,42.805,6.029,CST-1368DR,4685,5064,11518,01.218,551
2022-06-26T10:28:44,42.805,6.029,CST-1368DR,4685,5076,11546,01.208,551
2022-06-26T10:31:45,42.805,6.029,CST-1368DR,4685,5075,11542,01.209,551
2022-06-26T10:34:47,42.805,6.029,CST-1368DR,4685,5071,11533,01.212,551
2022-06-26T10:37:48,42.805,6.029,CST-1368DR,4685,5075,11542,01.209,551
2022-06-26T10:40:50,42.805,6.029,CST-1368DR,4685,5065,11520,01.217,551
2022-06-26T10:43:52,42.805,6.029,CST-1368DR,4685,5064,11517,01.218,551
2022-06-26T10:46:53,42.805,6.029,CST-1368DR,4685,5074,11539,01.210,551
2022-06-26T10:49:55,42.805,6.029,CST-1368DR,4685,5060,11509,01.221,551
2022-06-26T10:52:56,42.805,6.029,CST-1368DR,4685,5059,11506,01.222,551
2022-06-26T10:55:58,42.805,6.029,CST-1368DR,4685,5066,11523,01.216,551
2022-06-26T10:58:59,42.805,6.029,CST-1368DR,4685,5078,11549,01.207,551
2022-06-26T11:02:01,42.805,6.029,CST-1368DR,4685,5068,11528,01.214,551
2022-06-26T11:10:07,42.805,6.029,CST-1368DR,4685,5066,11522,01.216,551
2022-06-26T11:13:08,42.805,6.029,CST-1368DR,4685,5072,11535,01.212,551
2022-06-26T11:16:10,42.805,6.029,CST-1368DR,4685,5063,11516,01.218,551
2022-06-26T11:19:12,42.805,6.029,CST-1368DR,4685,5067,11525,01.215,551
2022-06-26T11:22:13,42.805,6.029,CST-1368DR,4685,5078,11549,01.207,551
2022-06-26T11:25:15,42.805,6.029,CST-1368DR,4685,5071,11534,01.212,551
2022-06-26T11:28:16,42.805,6.029,CST-1368DR,4685,5060,11508,01.221,551
2022-06-26T11:31:18,42.805,6.029,CST-1368DR,4685,5079,11551,01.206,551
2022-06-26T11:34:20,42.805,6.029,CST-1368DR,4685,5075,11543,01.209,551
2022-06-26T11:37:21,42.805,6.029,CST-1368DR,4685,5065,11519,01.217,551
2022-06-26T11:40:23,42.805,6.029,CST-1368DR,4685,5080,11555,01.205,551
2022-06-26T11:43:24,42.805,6.029,CST-1368DR,4685,5076,11545,01.208,551
2022-06-26T11:46:26,42.805,6.029,CST-1368DR,4685,5068,11527,01.214,551
2022-06-26T11:49:27,42.805,6.029,CST-1368DR,4685,5081,11556,01.204,551
2022-06-26T11:52:29,42.805,6.029,CST-1368DR,4685,5073,11537,01.211,551
2022-06-26T11:55:31,42.805,6.029,CST-1368DR,4685,5063,11516,01.218,551
2022-06-26T11:58:32,42.805,6.029,CST-1368DR,4685,5068,11528,01.214,551
2022-06-26T12:01:34,42.805,6.029,CST-1368DR,4685,5071,11534,01.212,551
2022-06-26T12:04:35,42.805,6.029,CST-1368DR,4685,5081,11556,01.204,551
2022-06-26T12:07:37,42.805,6.029,CST-1368DR,4685,5077,11547,01.207,551
2022-06-26T12:10:38,42.805,6.029,CST-1368DR,4685,5078,11550,01.206,551
2022-06-26T12:13:40,42.805,6.029,CST-1368DR,4685,5070,11531,01.213,551
2022-06-26T12:16:42,42.805,6.029,CST-1368DR,4685,5067,11525,01.215,551
2022-06-26T12:19:43,42.805,6.029,CST-1368DR,4685,5068,11526,01.215,551
2022-06-26T12:22:45,42.805,6.029,CST-1368DR,4685,5064,11518,01.218,551
2022-06-26T12:25:46,42.805,6.029,CST-1368DR,4685,5064,11517,01.218,551
2022-06-26T12:28:48,42.805,6.029,CST-1368DR,4685,5066,11523,01.216,551
2022-06-26T12:31:50,42.805,6.029,CST-1368DR,4685,5071,11534,01.212,551
2022-06-26T12:34:51,42.805,6.029,CST-1368DR,4685,5070,11530,01.213,551
2022-06-26T12:37:53,42.805,6.029,CST-1368DR,4685,5062,11513,01.219,551
2022-06-26T12:40:54,42.805,6.029,CST-1368DR,4685,5071,11533,01.212,551
2022-06-26T12:43:56,42.805,6.029,CST-1368DR,4685,5068,11528,01.214,551
2022-06-26T12:46:57,42.805,6.029,CST-1368DR,4685,5069,11529,01.214,551
2022-06-26T12:49:59,42.805,6.029,CST-1368DR,4685,5073,11538,01.211,551
2022-06-26T12:53:01,42.805,6.029,CST-1368DR,4685,5070,11532,01.213,551
2022-06-26T12:56:02,42.805,6.029,CST-1368DR,4685,5068,11526,01.215,551
2022-06-26T12:59:04,42.805,6.029,CST-1368DR,4685,5066,11522,01.216,551
2022-06-26T13:02:05,42.805,6.029,CST-1368DR,4685,5064,11517,01.218,551
2022-06-26T13:05:07,42.805,6.029,CST-1368DR,4685,5066,11521,01.216,551
2022-06-26T13:08:08,42.805,6.029,CST-1368DR,4685,5064,11518,01.218,551
2022-06-26T13:11:10,42.805,6.029,CST-1368DR,4685,5066,11523,01.216,551
2022-06-26T13:14:12,42.805,6.029,CST-1368DR,4685,5063,11515,01.219,551
2022-06-26T13:17:13,42.805,6.029,CST-1368DR,4685,5065,11520,01.217,551
2022-06-26T13:20:15,42.805,6.029,CST-1368DR,4685,5065,11520,01.217,551
2022-06-26T13:23:16,42.805,6.029,CST-1368DR,4685,5062,11513,01.219,551
2022-06-26T13:26:18,42.805,6.029,CST-1368DR,4685,5062,11514,01.219,551
2022-06-26T13:29:20,42.805,6.029,CST-1368DR,4685,5070,11531,01.213,551
2022-06-26T13:32:21,42.805,6.029,CST-1368DR,4685,5063,11514,01.219,551
2022-06-26T13:35:23,42.805,6.029,CST-1368DR,4685,5075,11543,01.209,551
2022-06-26T13:38:24,42.805,6.029,CST-1368DR,4685,5068,11527,01.214,551
2022-06-26T13:41:26,42.805,6.029,CST-1368DR,4685,5071,11533,01.212,551
2022-06-26T13:44:27,42.805,6.029,CST-1368DR,4685,5062,11514,01.219,551
2022-06-26T13:47:29,42.805,6.029,CST-1368DR,4685,5064,11518,01.218,551
2022-06-26T13:50:31,42.805,6.029,CST-1368DR,4685,5065,11520,01.217,551
2022-06-26T13:53:32,42.805,6.029,CST-1368DR,4685,5063,11516,01.218,551
2022-06-26T13:56:34,42.805,6.029,CST-1368DR,4685,5067,11525,01.215,551
2022-06-26T13:59:35,42.805,6.029,CST-1368DR,4685,5070,11532,01.213,551
2022-06-26T14:02:37,42.805,6.029,CST-1368DR,4685,5063,11516,01.218,551
2022-06-26T14:05:38,42.805,6.029,CST-1368DR,4685,5060,11509,01.221,551
2022-06-26T14:08:40,42.805,6.029,CST-1368DR,4685,5063,11515,01.219,551
2022-06-26T14:11:42,42.805,6.029,CST-1368DR,4685,5069,11529,01.214,551
2022-06-26T14:14:43,42.805,6.029,CST-1368DR,4685,5066,11522,01.216,551
2022-06-26T14:17:45,42.805,6.029,CST-1368DR,4685,5073,11537,01.211,551
2022-06-26T14:20:46,42.805,6.029,CST-1368DR,4685,5065,11519,01.217,551
2022-06-26T14:23:48,42.805,6.029,CST-1368DR,4685,5069,11530,01.213,551
2022-06-26T14:26:50,42.805,6.029,CST-1368DR,4685,5074,11541,01.210,551
2022-06-26T14:29:51,42.805,6.029,CST-1368DR,4685,5067,11525,01.215,551
2022-06-26T14:32:53,42.805,6.029,CST-1368DR,4685,5067,11525,01.215,551
2022-06-26T14:35:54,42.805,6.029,CST-1368DR,4685,5084,11564,01.202,551
2022-06-26T14:38:56,42.805,6.029,CST-1368DR,4685,5076,11545,01.208,551
2022-06-26T14:41:57,42.805,6.029,CST-1368DR,4685,5052,11489,01.228,551
2022-06-26T14:44:59,42.805,6.029,CST-1368DR,4685,5052,11489,01.228,551
2022-06-26T14:48:01,42.805,6.029,CST-1368DR,4685,5052,11491,01.227,551
2022-06-26T14:51:02,42.805,6.029,CST-1368DR,4685,5051,11488,01.228,551
2022-06-26T14:54:04,42.805,6.029,CST-1368DR,4685,5054,11496,01.225,551
2022-06-26T14:57:05,42.805,6.029,CST-1368DR,4685,5052,11491,01.227,551
2022-06-26T15:00:07,42.805,6.029,CST-1368DR,4685,5053,11492,01.227,551
2022-06-26T15:03:08,42.805,6.029,CST-1368DR,4685,5063,11515,01.219,551
2022-06-26T15:06:10,42.805,6.029,CST-1368DR,4685,5073,11539,01.210,551
2022-06-26T15:09:12,42.805,6.029,CST-1368DR,4685,5062,11513,01.219,551
2022-06-26T15:12:13,42.805,6.029,CST-1368DR,4685,5076,11545,01.208,551
2022-06-26T15:15:15,42.805,6.029,CST-1368DR,4685,5062,11512,01.220,551
2022-06-26T15:18:16,42.805,6.029,CST-1368DR,4685,5074,11540,01.210,551
2022-06-26T15:21:18,42.805,6.029,CST-1368DR,4685,5070,11532,01.213,551
2022-06-26T15:24:20,42.805,6.029,CST-1368DR,4685,5063,11516,01.218,551
2022-06-26T15:27:21,42.805,6.029,CST-1368DR,4685,5058,11503,01.223,551
2022-06-26T15:30:23,42.805,6.029,CST-1368DR,4685,5065,11519,01.217,551
2022-06-26T15:33:24,42.805,6.029,CST-1368DR,4685,5058,11503,01.223,551
2022-06-26T15:36:26,42.805,6.029,CST-1368DR,4685,5066,11522,01.216,551
2022-06-26T15:39:27,42.805,6.029,CST-1368DR,4685,5073,11538,01.211,551
2022-06-26T15:42:29,42.805,6.029,CST-1368DR,4685,5064,11517,01.218,551
2022-06-26T15:45:31,42.805,6.029,CST-1368DR,4685,5060,11508,01.221,551
2022-06-26T15:48:32,42.805,6.029,CST-1368DR,4685,5057,11503,01.223,551
2022-06-26T15:51:34,42.805,6.029,CST-1368DR,4685,5057,11501,01.223,551
2022-06-26T15:54:35,42.805,6.029,CST-1368DR,4685,5056,11499,01.224,551
2022-06-26T15:57:37,42.805,6.029,CST-1368DR,4685,5066,11522,01.216,551
2022-06-26T16:00:39,42.805,6.029,CST-1368DR,4685,5066,11521,01.216,551
2022-06-26T16:03:40,42.805,6.029,CST-1368DR,4685,5063,11516,01.218,551
2022-06-26T16:06:42,42.805,6.029,CST-1368DR,4685,5059,11507,01.221,551
2022-06-26T16:09:43,42.805,6.029,CST-1368DR,4685,5063,11515,01.219,551
2022-06-26T16:12:45,42.805,6.029,CST-1368DR,4685,5071,11533,01.212,551
2022-06-26T16:15:46,42.805,6.029,CST-1368DR,4685,5071,11534,01.212,551
2022-06-26T16:18:48,42.805,6.029,CST-1368DR,4685,5068,11527,01.214,551
2022-06-26T16:21:50,42.805,6.029,CST-1368DR,4685,5059,11506,01.222,551
2022-06-26T16:24:51,42.805,6.029,CST-1368DR,4685,5070,11532,01.213,551
2022-06-26T16:27:53,42.805,6.029,CST-1368DR,4685,5060,11509,01.221,551
2022-06-26T16:30:54,42.805,6.029,CST-1368DR,4685,5059,11506,01.222,551
2022-06-26T16:33:56,42.805,6.029,CST-1368DR,4685,5070,11532,01.213,551
2022-06-26T16:36:57,42.805,6.029,CST-1368DR,4685,5073,11537,01.211,551
2022-06-26T16:39:59,42.805,6.029,CST-1368DR,4685,5067,11525,01.215,551
2022-06-26T16:43:01,42.805,6.029,CST-1368DR,4685,5067,11525,01.215,551